SCP
0 0 0 0 0 0 0 0 0 0 0 0 0 1 1 2 2 2 2 3 3 3 3 3 3 2 2 3 3 4 5 6 6 6 6 6 6 6 6 6 6 6 6 6
0 0 0 0 0 0 0 0 0 0 0 0 0 1 1 2 2 2 2 3 3 3 3 3 3 3 3 3 4 4 5 6 7 7 7 7 7 7 7 8 8 7 7 7
0 0 0 0 0 0 0 0 0 0 0 0 0 0 1 1 1 1 2 2 2 3 3 3 3 3 4 4 4 5 6 6 7 7 8 9 9 9 9 9 10 9 8 7
0 0 0 0 0 0 0 0 0 0 0 0 0 0 0 1 1 1 1 2 2 2 2 3 3 3 4 4 5 6 6 6 6 7 8 9 9 9 8 9 9 9 7 6
0 0 0 0 0 0 0 0 0 0 0 0 0 0 0 0 0 1 1 1 1 1 1 2 2 3 3 4 4 5 6 6 7 7 8 8 8 8 8 8 8 7 6 5
0 0 0 0 0 0 0 0 0 0 0 0 0 0 0 0 0 1 1 1 1 1 1 1 1 2 2 3 3 4 5 6 6 7 7 8 8 7 7 7 7 6 4 3
0 0 0 0 0 0 0 0 0 0 0 0 0 0 0 0 0 0 0 0 0 0 0 0 0 1 1 2 2 3 4 5 5 6 6 6 7 7 7 7 6 5 4 3
0 0 0 0 0 0 0 0 0 0 0 0 0 0 0 0 0 0 0 0 0 0 0 0 0 0 0 1 1 2 3 3 4 4 5 5 5 6 6 6 5 4 4 3
0 0 0 0 0 0 0 0 0 0 0 0 0 0 0 0 0 0 0 0 0 0 0 0 0 0 0 0 1 1 2 2 3 3 3 4 4 4 5 4 4 3 3 2
0 0 0 0 0 0 0 0 0 0 0 0 0 0 0 0 0 0 0 0 0 0 0 0 0 0 0 0 1 1 2 2 2 2 3 3 3 3 3 3 2 2 2 2
0 0 0 0 0 0 0 0 0 0 0 0 0 0 0 0 0 0 0 0 0 0 0 0 0 0 0 0 1 1 2 2 2 2 2 2 2 2 2 2 1 1 1 1
0 0 0 0 0 0 0 0 0 0 0 0 0 0 0 0 0 0 0 0 0 0 0 0 0 0 0 0 1 1 1 1 2 2 2 2 2 2 1 1 1 1 0 0
0 0 0 0 0 0 0 0 0 0 0 0 0 0 0 0 0 0 0 0 0 0 0 0 0 0 0 0 0 1 1 1 1 1 1 1 1 1 1 0 0 0 0 0
0 0 0 0 0 0 0 0 0 0 0 0 0 0 0 0 0 0 0 0 0 0 0 0 0 0 0 0 0 0 1 1 1 1 1 1 1 0 0 0 0 0 0 0
0 0 0 0 0 0 0 0 0 0 0 0 0 0 0 0 0 0 0 0 0 0 0 0 0 0 0 0 0 0 0 0 0 0 1 1 0 0 0 0 0 0 0 0
0 0 0 0 0 0 0 0 0 0 0 0 0 0 0 0 0 0 0 0 0 0 0 0 0 0 0 0 0 0 0 0 0 0 0 0 0 0 0 0 0 0 0 0
0 0 0 0 0 0 0 0 0 0 0 0 0 0 0 0 0 0 0 0 0 0 0 0 0 0 0 0 0 0 0 0 0 0 0 0 0 0 0 0 0 0 0 0
0 0 0 0 0 0 0 0 0 0 0 0 0 0 0 0 0 0 0 0 0 0 0 0 0 0 0 0 0 0 0 0 0 0 0 0 0 0 0 0 0 0 0 0
0 0 0 0 0 0 0 0 0 0 0 0 0 0 0 0 0 0 0 0 0 0 0 0 0 0 0 0 0 0 0 0 0 0 0 0 0 0 0 0 0 0 0 0
0 0 0 0 0 0 0 0 0 0 0 0 0 0 0 0 0 0 0 0 0 0 0 0 0 0 0 0 0 0 0 0 0 0 0 0 0 0 0 0 0 0 0 0
0 0 0 0 0 0 0 0 0 0 0 0 0 0 0 0 0 0 0 0 0 0 0 0 0 0 0 0 0 0 0 0 0 0 0 0 0 0 0 0 0 0 0 0
0 0 0 0 0 0 0 0 0 0 0 0 0 0 0 0 0 0 0 0 0 0 0 0 0 0 0 0 0 0 0 0 0 0 0 0 0 0 0 0 0 0 0 0
0 0 0 0 0 0 0 0 0 0 0 0 0 0 0 0 0 0 0 0 0 0 0 0 0 0 0 0 0 0 0 0 0 0 0 0 0 0 0 0 0 0 0 0
0 0 0 0 0 0 0 0 0 0 0 0 0 0 0 0 0 0 0 0 0 1 1 0 1 1 1 0 0 0 0 0 0 0 0 0 0 0 0 0 0 0 0 0
0 0 0 0 0 0 0 0 0 0 0 0 0 0 0 0 1 1 1 1 1 1 1 1 1 1 1 0 0 0 0 0 0 0 0 0 0 0 0 0 0 0 0 0
0 0 0 0 0 0 0 0 0 0 0 0 0 0 0 1 1 1 1 1 1 1 1 1 1 1 1 1 0 0 0 0 0 0 0 0 0 0 0 0 0 0 0 0
Wind_Speed
3 4 1 3 2 3 2 4 3 1 3 6 5 5 5 6 5 4 3 3 2 1 1 0 2 5 7 9 11 13 13 13 11 10 10 10 10 10 9 8 9 8 9 9
7 4 4 1 1 3 4 4 3 2 2 7 8 9 3 2 4 5 5 4 4 3 2 1 1 2 5 6 8 10 12 13 13 11 10 9 9 8 7 4 4 5 6 6
1 5 3 2 3 3 2 4 5 8 9 10 10 13 8 5 2 2 3 4 5 5 5 5 5 4 5 5 5 6 9 10 12 12 9 7 6 5 5 5 4 5 5 5
1 1 2 2 1 5 4 3 8 11 13 12 9 13 10 7 6 4 4 5 6 6 6 7 7 7 6 6 6 6 7 8 10 10 11 12 10 9 9 7 6 6 6 5
1 2 5 5 2 5 7 6 10 13 14 15 14 13 10 7 8 5 5 5 5 6 6 6 6 6 6 7 6 6 7 7 7 9 11 11 11 9 7 6 8 7 6 6
2 3 4 3 2 3 5 8 11 11 11 13 8 10 9 4 3 4 4 4 4 5 5 5 5 5 6 6 6 7 7 7 7 8 9 10 11 10 9 8 8 7 6 7
2 4 3 3 6 4 5 9 8 7 7 4 3 8 6 5 3 1 1 3 4 5 6 6 7 7 7 7 7 7 8 9 9 9 9 10 10 10 10 9 9 8 7 7
4 1 3 1 4 6 6 8 8 9 9 11 11 9 2 4 3 3 3 5 6 7 7 8 8 8 8 9 8 8 8 9 9 9 9 8 8 7 6 7 7 7 6 6
4 1 5 1 3 6 6 6 8 10 14 13 8 4 4 5 6 6 6 7 8 8 9 9 10 10 10 10 9 9 9 9 10 10 9 8 7 6 5 5 5 4 5 5
5 7 3 4 5 2 5 7 5 7 8 11 10 10 5 5 5 5 6 8 8 9 9 10 9 10 9 10 9 9 8 9 9 9 8 6 6 4 4 4 4 4 4 4
6 8 6 6 8 9 5 6 6 8 8 11 13 8 4 3 7 8 9 10 9 10 10 9 8 8 9 9 8 6 6 6 6 7 6 4 2 3 3 2 2 2 3 4
4 8 11 10 1 3 8 9 8 10 11 13 14 13 5 5 7 9 12 12 11 9 9 8 8 8 7 7 6 4 4 3 4 5 4 2 2 4 4 3 2 1 2 3
2 7 11 11 7 7 8 9 11 12 12 13 16 12 1 6 11 14 14 12 10 9 9 8 7 6 6 4 3 3 2 2 3 3 5 6 5 5 5 3 1 1 2 3
5 10 14 16 15 14 13 13 12 13 14 16 18 19 17 17 18 15 12 10 9 9 8 7 6 5 4 3 2 2 1 0 2 2 4 5 4 4 4 3 3 4 5 5
5 11 14 16 17 17 18 18 18 18 19 21 22 21 18 16 15 12 10 9 9 9 8 7 5 4 4 3 4 4 2 1 1 0 2 5 6 6 7 7 6 5 6 6
5 10 13 16 16 16 18 20 20 20 20 21 21 21 17 13 11 10 9 9 10 10 8 7 5 5 6 5 6 5 4 3 2 3 4 7 8 8 8 8 7 7 6 7
7 8 10 11 9 12 12 9 10 12 13 16 17 16 15 16 14 12 10 9 10 9 7 7 6 6 6 7 6 6 5 4 4 3 4 6 9 9 9 9 8 7 7 8
7 7 7 9 9 8 5 7 10 13 14 14 16 16 16 15 13 12 11 10 10 8 7 7 7 7 7 7 7 7 6 5 4 4 4 6 8 10 9 8 8 7 7 7
5 6 7 7 10 11 8 6 10 12 15 12 11 12 13 13 12 12 8 7 8 8 7 7 8 8 8 8 8 8 7 7 6 4 4 6 8 10 10 10 9 8 7 8
5 6 8 9 11 8 5 10 10 11 12 6 13 16 18 17 15 12 9 6 8 8 8 8 8 9 9 9 8 9 9 8 7 5 5 6 8 9 10 10 10 9 8 8
6 8 10 11 11 8 6 11 14 12 12 20 22 22 22 20 17 18 17 14 10 9 10 10 10 10 10 9 9 10 9 9 8 6 6 7 7 8 8 8 8 8 8 8
8 7 6 6 8 4 12 14 12 14 19 21 22 22 22 22 21 20 19 15 12 11 11 12 11 11 10 10 10 11 10 8 8 8 8 8 8 8 8 8 8 9 9 10
6 6 6 6 8 11 13 13 14 16 18 19 20 21 21 22 21 20 19 17 13 13 12 12 13 12 11 12 11 11 9 9 9 9 9 9 9 8 8 9 9 9 9 8
7 4 8 11 9 10 11 14 16 17 17 18 19 20 19 20 20 20 18 17 15 12 12 13 14 14 13 13 12 11 9 10 10 10 10 9 9 9 9 7 8 8 9 8
9 7 9 11 9 11 10 16 18 19 19 19 19 18 18 18 18 18 17 17 15 12 11 13 15 15 15 14 13 12 11 11 12 11 10 10 10 9 8 8 5 7 7 6
9 8 7 7 12 11 12 17 20 20 20 21 21 20 18 17 17 17 16 16 15 13 10 13 16 16 16 15 14 13 12 13 12 11 11 9 9 8 8 9 8 6 4 7
Wind_Direction
203 234 47 40 358 1 301 277 281 342 352 296 286 295 333 355 357 10 11 7 21 16 73 180 247 242 235 226 222 221 222 214 213 216 218 219 223 226 230 236 250 264 272 274
198 112 44 3 205 221 230 257 279 236 305 299 293 281 274 356 16 19 22 22 14 10 16 8 323 291 268 252 241 236 230 225 219 223 223 228 233 230 228 230 246 269 278 280
5 61 50 141 160 209 227 301 322 312 303 265 272 267 215 175 163 97 67 51 43 32 17 11 4 356 333 312 289 272 261 248 235 234 229 225 223 223 217 212 213 220 229 244
224 111 301 263 267 302 280 324 305 297 292 290 285 286 265 196 187 150 93 72 59 45 32 23 14 7 354 343 329 311 292 272 256 243 237 228 223 223 222 210 207 209 204 217
215 262 269 269 303 302 323 324 291 287 283 280 268 267 277 182 214 163 104 72 54 41 27 17 8 358 350 343 335 326 314 298 282 263 250 243 239 238 230 213 202 195 189 198
298 257 270 297 300 296 305 278 266 253 261 263 278 283 278 235 226 140 109 65 40 24 10 1 350 343 338 334 331 329 320 306 293 275 262 250 245 242 230 212 198 193 190 194
258 204 184 246 248 204 289 309 295 269 247 275 46 286 278 62 107 120 24 0 353 344 334 329 326 327 325 324 326 321 315 306 299 286 273 262 254 245 231 216 200 192 193 195
294 195 133 230 310 325 332 314 315 310 306 312 296 266 295 118 180 219 260 285 298 299 300 303 305 308 308 310 313 311 308 303 298 289 281 272 257 244 231 214 200 191 196 192
291 299 138 177 299 303 308 315 332 292 282 281 272 260 260 184 215 229 251 269 282 293 296 293 295 297 298 301 303 304 304 301 299 293 281 265 251 237 214 190 189 184 180 176
292 286 223 173 211 191 308 320 282 284 296 290 283 279 267 192 231 266 285 298 303 301 297 296 294 292 295 295 296 298 300 304 308 301 287 269 244 213 177 165 162 165 168 168
271 275 264 225 250 293 269 263 285 292 289 290 293 301 25 261 290 296 304 305 301 302 305 305 301 298 293 289 290 295 306 316 325 326 317 284 225 160 140 132 130 143 164 172
277 282 284 279 320 291 278 277 273 280 283 272 277 287 315 286 284 287 298 302 302 299 300 302 302 300 294 291 290 291 303 329 352 360 8 20 82 102 89 68 62 122 159 162
278 272 279 271 207 205 234 249 267 277 276 273 275 278 342 278 278 284 291 295 294 290 294 299 302 303 301 299 285 282 304 352 18 32 55 63 69 83 81 62 56 158 151 146
268 267 274 285 296 304 284 273 261 263 269 274 273 285 299 305 309 307 304 300 293 290 289 293 296 292 292 280 270 261 259 354 25 52 89 99 103 110 124 157 190 181 156 142
254 272 277 281 287 287 284 281 277 264 261 272 282 289 298 307 314 311 304 295 291 290 287 287 282 273 260 243 237 246 249 255 310 284 150 158 160 169 170 176 179 166 148 136
260 284 288 283 281 281 278 275 274 272 269 267 273 279 287 299 305 298 290 284 290 295 288 278 258 243 239 237 238 244 249 259 266 245 195 175 172 177 176 172 167 154 140 134
264 271 289 287 305 294 274 278 288 287 277 273 276 287 303 307 306 300 293 288 294 296 285 267 249 235 233 235 237 243 242 247 250 234 195 175 172 174 172 165 156 149 142 135
262 270 268 288 297 269 295 330 310 299 295 295 294 299 305 309 310 294 277 276 283 282 270 255 243 233 228 230 229 235 237 243 243 227 189 169 166 162 158 159 152 149 144 138
240 254 274 280 289 289 296 354 344 318 302 312 331 333 328 329 307 283 270 242 257 260 251 245 235 230 224 223 223 227 234 237 232 219 187 171 163 159 162 163 159 154 150 144
191 230 265 276 288 283 355 27 348 307 287 23 341 328 323 318 304 311 335 297 255 237 227 223 219 220 216 217 218 226 232 234 231 213 185 170 166 164 164 161 159 154 151 148
249 246 254 274 276 274 26 357 330 302 330 338 321 312 306 304 302 304 303 293 269 241 225 213 210 209 212 210 212 226 235 233 227 205 181 172 164 158 153 152 152 151 153 146
292 285 280 281 271 280 11 345 339 326 322 314 311 306 302 300 298 297 295 291 271 248 232 214 205 204 204 204 209 223 231 227 216 199 185 172 165 161 152 154 154 155 150 147
257 300 309 285 279 323 343 345 347 340 328 323 319 314 308 303 298 297 295 292 280 254 236 217 206 201 198 199 208 222 221 213 205 196 185 173 167 162 160 162 160 160 167 167
284 302 277 280 276 327 345 1 355 347 340 336 332 327 322 315 309 305 300 294 286 265 235 218 208 202 198 198 205 216 212 200 200 194 183 175 172 171 168 172 172 176 178 175
324 310 289 279 323 344 345 355 347 340 338 338 336 335 335 331 324 320 311 301 293 276 239 219 210 204 198 195 199 205 201 196 199 193 184 183 184 180 175 182 173 190 182 176
14 4 345 352 359 329 334 342 340 336 333 331 329 329 334 336 333 331 325 320 312 293 253 224 215 207 198 193 195 196 194 196 199 194 190 189 189 182 184 175 162 64 81 107